Date String (YYYY-MM-DD hh:mm:ss) UTC,Instrument flags,Ambient pressure (hPa),Sample flow (lpm),Bypass flow (lpm),Sample temperature (°C),Ambient temperature (°C),ASC tube jacket temperature (°C),LED temperature (°C),Box temperature (°C),Sample RH (%),Span deviation,Mass concentration (μg/m³),Mass concentration (μg/m³),Mass concentration (μg/m³)
DateTimeUTC,F1_M11,P_M11,Q1_M11,Q2_M11,T1_M11,T2_M11,T3_M11,T4_M11,T5_M11,U1_M11,ZSPAN_M11,X0_M11,X2_M11,X1_M11
2021-12-15 11:00:00,,0807.9,4.99,0.00,24.3,23.7,00.0,33.3,26.1,12.6,0000.0,0000.59,0000.36,0000.21
2021-12-15 11:01:00,,0807.8,5.02,0.00,24.4,23.8,00.0,33.3,26.2,12.6,0000.0,0000.56,0000.35,0000.21
2021-12-15 11:02:00,,0807.7,4.99,0.00,24.4,23.8,00.0,33.3,26.2,12.7,0000.0,0000.65,0000.36,0000.21
2021-12-15 11:03:00,,0807.7,5.00,0.00,24.4,23.8,00.0,33.4,26.2,12.7,0000.0,0000.69,0000.37,0000.22
2021-12-15 11:04:00,,0807.7,5.01,0.00,24.4,23.8,00.0,33.4,26.2,12.8,0000.0,0000.75,0000.38,0000.22
2021-12-15 11:05:00,,0807.6,5.00,0.00,24.4,23.8,00.0,33.4,26.2,12.8,0000.0,0000.76,0000.37,0000.21
2021-12-15 11:06:00,,0807.7,4.99,0.00,24.4,23.8,00.0,33.4,26.1,12.8,0000.0,0000.81,0000.36,0000.21
2021-12-15 11:07:00,,0807.7,4.99,0.00,24.4,23.7,00.0,33.4,26.1,12.8,0000.0,0000.78,0000.34,0000.20
2021-12-15 11:08:00,,0807.6,5.02,0.00,24.4,23.7,00.0,33.4,26.1,12.8,0000.0,0000.76,0000.32,0000.19
2021-12-15 11:09:00,,0807.6,5.00,0.00,24.4,23.8,00.0,33.4,26.1,12.8,0000.0,0000.71,0000.30,0000.18
2021-12-15 11:10:00,,0807.5,4.98,0.00,24.4,23.8,00.0,33.4,26.2,12.9,0000.0,0000.73,0000.31,0000.18
2021-12-15 11:11:00,,0807.5,5.01,0.00,24.4,23.8,00.0,33.4,26.2,12.9,0000.0,0000.77,0000.33,0000.18
2021-12-15 11:12:00,,0807.5,5.00,0.00,24.4,23.8,00.0,33.4,26.2,12.9,0000.0,0000.77,0000.33,0000.18
2021-12-15 11:13:00,,0807.4,5.01,0.00,24.4,23.8,00.0,33.4,26.1,13.0,0000.0,0000.74,0000.32,0000.18
2021-12-15 11:14:00,,0807.5,4.98,0.00,24.4,23.7,00.0,33.4,26.1,13.0,0000.0,0000.74,0000.34,0000.18
2021-12-15 11:15:00,,0807.4,5.01,0.00,24.3,23.7,00.0,33.4,26.0,13.0,0000.0,0000.71,0000.33,0000.18
2021-12-15 11:16:00,,0807.4,5.00,0.00,24.3,23.7,00.0,33.4,26.0,13.1,0000.0,0000.71,0000.33,0000.18
2021-12-15 11:17:00,,0807.4,5.00,0.00,24.3,23.7,00.0,33.4,26.0,13.1,0000.0,0000.63,0000.33,0000.18
2021-12-15 11:18:00,,0807.4,5.01,0.00,24.3,23.6,00.0,33.4,26.0,13.1,0000.0,0000.64,0000.33,0000.17
2021-12-15 11:19:00,,0807.4,5.01,0.00,24.3,23.7,00.0,33.4,26.1,13.1,0000.0,0000.66,0000.34,0000.17
2021-12-15 11:20:00,,0807.4,4.99,0.00,24.3,23.7,00.0,33.4,26.0,13.2,0000.0,0000.67,0000.34,0000.17
2021-12-15 11:21:00,,0807.4,5.01,0.00,24.3,23.7,00.0,33.4,26.1,12.9,0000.0,0000.79,0000.32,0000.18
2021-12-15 11:22:00,,0807.3,4.99,0.00,24.3,23.7,00.0,33.4,26.1,11.5,0000.0,0002.42,0000.54,0000.34
2021-12-15 11:23:00,,0807.3,4.99,0.00,24.3,23.7,00.0,33.3,26.1,11.4,0000.0,0003.24,0000.88,0000.55
2021-12-15 11:24:00,,0807.4,5.01,0.00,24.4,23.7,00.0,33.4,26.1,11.3,0000.0,0003.99,0001.26,0000.76
2021-12-15 11:25:00,,0807.4,4.98,0.00,24.4,23.8,00.0,33.4,26.2,11.4,0000.0,0005.08,0001.63,0000.95
2021-12-15 11:26:00,,0807.4,5.01,0.00,24.4,23.8,00.0,33.4,26.2,11.1,0000.0,0008.05,0002.09,0001.18
2021-12-15 11:27:00,,0807.5,4.99,0.00,24.4,23.8,00.0,33.4,26.3,11.0,0000.0,0009.01,0002.52,0001.42
2021-12-15 11:28:00,,0807.4,5.02,0.00,24.4,23.8,00.0,33.4,26.3,11.0,0000.0,0009.39,0002.88,0001.66
2021-12-15 11:29:00,,0807.3,5.00,0.00,24.5,23.9,00.0,33.4,26.3,10.9,0000.0,0010.59,0003.24,0001.90
2021-12-15 11:30:00,,0807.3,4.99,0.00,24.5,23.9,00.0,33.4,26.3,10.8,0000.0,0012.15,0003.51,0002.16
2021-12-15 11:31:00,,0807.2,4.99,0.00,24.5,23.9,00.0,33.4,26.3,10.8,0000.0,0012.93,0003.79,0002.42
2021-12-15 11:32:00,,0807.1,5.01,0.00,24.5,23.8,00.0,33.4,26.3,10.7,0000.0,0013.64,0004.04,0002.67
2021-12-15 11:33:00,,0807.1,5.00,0.00,24.5,23.8,00.0,33.4,26.3,10.8,0000.0,0013.28,0004.19,0002.84
2021-12-15 11:34:00,,0807.1,5.01,0.00,24.5,23.8,00.0,33.4,26.3,10.7,0000.0,0014.11,0004.26,0002.92
2021-12-15 11:35:00,,0807.1,4.98,0.00,24.5,23.8,00.0,33.4,26.3,10.8,0000.0,0014.91,0004.37,0003.01
2021-12-15 11:36:00,,0807.1,5.02,0.00,24.5,23.8,00.0,33.4,26.2,10.8,0000.0,0015.91,0004.44,0003.11
2021-12-15 11:37:00,,0807.1,4.99,0.00,24.4,23.8,00.0,33.4,26.2,11.1,0000.0,0015.09,0004.49,0003.18
2021-12-15 11:38:00,,0807.0,5.01,0.00,24.4,23.8,00.0,33.4,26.2,11.0,0000.0,0015.88,0004.60,0003.21
2021-12-15 11:39:00,,0806.9,4.99,0.00,24.5,23.8,00.0,33.4,26.2,11.6,0000.0,0016.65,0004.66,0003.23
2021-12-15 11:40:00,,0807.0,5.01,0.00,24.4,23.8,00.0,33.4,26.2,12.6,0000.0,0016.52,0004.52,0003.15
2021-12-15 11:41:00,,0807.0,5.00,0.00,24.4,23.7,00.0,33.4,26.1,12.3,0000.0,0015.88,0004.35,0003.05
2021-12-15 11:42:00,,0807.0,4.99,0.00,24.4,23.7,00.0,33.4,26.1,12.3,0000.0,0015.55,0004.16,0002.90
2021-12-15 11:43:00,,0806.9,5.01,0.00,24.4,23.7,00.0,33.4,26.1,12.4,0000.0,0015.29,0004.01,0002.75
2021-12-15 11:44:00,,0806.8,5.01,0.00,24.4,23.6,00.0,33.4,26.1,12.2,0000.0,0015.75,0003.88,0002.59
2021-12-15 11:45:00,,0806.8,4.99,0.00,24.3,23.6,00.0,33.4,26.1,12.1,0000.0,0015.48,0003.75,0002.43
2021-12-15 11:46:00,,0806.8,5.00,0.00,24.4,23.6,00.0,33.4,26.1,12.1,0000.0,0014.77,0003.52,0002.25
2021-12-15 11:47:00,,0806.8,5.01,0.00,24.4,23.6,00.0,33.4,26.1,12.3,0000.0,0013.79,0003.34,0002.07
2021-12-15 11:48:00,,0806.8,4.99,0.00,24.3,23.6,00.0,33.4,26.1,12.1,0000.0,0012.86,0003.15,0001.84
2021-12-15 11:49:00,,0806.8,4.99,0.00,24.4,23.7,00.0,33.4,26.2,12.0,0000.0,0012.13,0002.78,0001.69
2021-12-15 11:50:00,,0806.8,5.00,0.00,24.4,23.7,00.0,33.4,26.2,12.2,0000.0,0011.41,0002.44,0001.52
2021-12-15 11:51:00,,0806.7,4.99,0.00,24.4,23.7,00.0,33.4,26.2,12.3,0000.0,0011.36,0002.45,0001.52
2021-12-15 11:52:00,,0806.6,4.99,0.00,24.4,23.7,00.0,33.4,26.2,12.3,0000.0,0010.71,0002.48,0001.52
2021-12-15 11:53:00,,0806.6,4.99,0.00,24.4,23.7,00.0,33.4,26.2,12.2,0000.0,0010.54,0002.56,0001.52
2021-12-15 11:54:00,,0806.5,5.01,0.00,24.4,23.7,00.0,33.4,26.2,12.1,0000.0,0010.42,0002.64,0001.53
2021-12-15 11:55:00,,0806.6,5.01,0.00,24.4,23.7,00.0,33.4,26.2,12.1,0000.0,0010.85,0002.70,0001.54
2021-12-15 11:56:00,,0806.6,4.99,0.00,24.4,23.7,00.0,33.4,26.2,12.3,0000.0,0011.10,0002.70,0001.49
2021-12-15 11:57:00,,0806.6,5.00,0.00,24.4,23.8,00.0,33.4,26.2,12.1,0000.0,0011.29,0002.75,0001.46
2021-12-15 11:58:00,,0806.7,4.99,0.00,24.4,23.8,00.0,33.4,26.3,12.1,0000.0,0011.26,0002.83,0001.46
2021-12-15 11:59:00,,0806.8,5.00,0.00,24.4,23.8,00.0,33.4,26.3,12.4,0000.0,0011.39,0002.85,0001.44
